Estación de El Tambo INIA
Ultimos registro cada 15 minutos 83
| N° | Estación | Fecha / Hora | Temperatura | Humedad | Lluvia | Velocidad | Dirección | Radiación | Presion |
| 83 | El Tambo INIA | 03-05-2026 20:30 | 16,1 | 48,6 | 0 | 0,9 | 60 | 0 | 988 |
| 82 | El Tambo INIA | 03-05-2026 20:15 | 16,2 | 52,2 | 0 | 0,8 | 32 | 0 | 988 |
| 81 | El Tambo INIA | 03-05-2026 20:00 | 16,8 | 51,7 | 0 | 1 | 39 | 0 | 988 |
| 80 | El Tambo INIA | 03-05-2026 19:45 | 17,6 | 47 | 0 | 1,3 | 44 | 0 | 988 |
| 79 | El Tambo INIA | 03-05-2026 19:30 | 18,1 | 39,4 | 0 | 1,4 | 100 | 0 | 988 |
| 78 | El Tambo INIA | 03-05-2026 19:15 | 17,9 | 37,3 | 0 | 1,2 | 113 | 0 | 988 |
| 77 | El Tambo INIA | 03-05-2026 19:00 | 17,6 | 43,4 | 0 | 0,9 | 75 | 0 | 987 |
| 76 | El Tambo INIA | 03-05-2026 18:45 | 17,8 | 45,8 | 0 | 1,4 | 63 | 0 | 987 |
| 75 | El Tambo INIA | 03-05-2026 18:30 | 18 | 45,6 | 0 | 2,4 | 88 | 0 | 987 |
| 74 | El Tambo INIA | 03-05-2026 18:15 | 18,3 | 46,6 | 0 | 2,5 | 75 | 6 | 987 |
| 73 | El Tambo INIA | 03-05-2026 18:00 | 18,8 | 47,8 | 0 | 2 | 59 | 23 | 987 |
| 72 | El Tambo INIA | 03-05-2026 17:45 | 19,2 | 50,1 | 0 | 1,9 | 95 | 63 | 987 |
| 71 | El Tambo INIA | 03-05-2026 17:30 | 19,6 | 48,4 | 0 | 1,6 | 104 | 124 | 987 |
| 70 | El Tambo INIA | 03-05-2026 17:15 | 19,8 | 47,4 | 0 | 2,3 | 104 | 173 | 987 |
| 69 | El Tambo INIA | 03-05-2026 17:00 | 20,2 | 48,5 | 0 | 2,9 | 109 | 177 | 987 |
| 68 | El Tambo INIA | 03-05-2026 16:45 | 20,3 | 46,8 | 0 | 2,7 | 108 | 288 | 987 |
| 67 | El Tambo INIA | 03-05-2026 16:30 | 20 | 47,7 | 0 | 3 | 110 | 211 | 987 |
| 66 | El Tambo INIA | 03-05-2026 16:15 | 20,6 | 46 | 0 | 2,6 | 110 | 160 | 987 |
| 65 | El Tambo INIA | 03-05-2026 16:00 | 21,7 | 43,9 | 0 | 2,6 | 116 | 203 | 987 |
| 64 | El Tambo INIA | 03-05-2026 15:45 | 22,1 | 41,3 | 0 | 1,6 | 104 | 295 | 987 |
| 63 | El Tambo INIA | 03-05-2026 15:30 | 22,3 | 35,8 | 0 | 1,5 | 126 | 230 | 987 |
| 62 | El Tambo INIA | 03-05-2026 15:15 | 22,7 | 33,3 | 0 | 1,6 | 114 | 268 | 987 |
| 61 | El Tambo INIA | 03-05-2026 15:00 | 23 | 33,6 | 0 | 0,7 | 275 | 233 | 987 |
| 60 | El Tambo INIA | 03-05-2026 14:45 | 23,5 | 30,6 | 0 | 0,4 | 329 | 287 | 987 |
| 59 | El Tambo INIA | 03-05-2026 14:30 | 24 | 30,7 | 0 | 0,3 | 204 | 463 | 987 |
| 58 | El Tambo INIA | 03-05-2026 14:15 | 23,7 | 32,1 | 0 | 0 | 0 | 626 | 987 |
| 57 | El Tambo INIA | 03-05-2026 14:00 | 22,8 | 32,8 | 0 | 0,7 | 290 | 558 | 987 |
| 56 | El Tambo INIA | 03-05-2026 13:45 | 22,4 | 37 | 0 | 0,5 | 286 | 458 | 987 |
| 55 | El Tambo INIA | 03-05-2026 13:30 | 22 | 39,5 | 0 | 0,2 | 236 | 441 | 987 |
| 54 | El Tambo INIA | 03-05-2026 13:15 | 21,5 | 37,2 | 0 | 0,7 | 286 | 550 | 988 |
| 53 | El Tambo INIA | 03-05-2026 13:00 | 21 | 40,2 | 0 | 0,4 | 246 | 347 | 988 |
| 52 | El Tambo INIA | 03-05-2026 12:45 | 20,9 | 41,4 | 0 | 0,3 | 261 | 313 | 988 |
| 51 | El Tambo INIA | 03-05-2026 12:30 | 20,6 | 40,2 | 0 | 0,2 | 184 | 349 | 988 |
| 50 | El Tambo INIA | 03-05-2026 12:15 | 20,5 | 40,8 | 0 | 0,4 | 269 | 382 | 988 |
| 49 | El Tambo INIA | 03-05-2026 12:00 | 19,8 | 43,1 | 0 | 0,5 | 250 | 376 | 989 |
| 48 | El Tambo INIA | 03-05-2026 11:45 | 19,6 | 43,7 | 0 | 0,5 | 306 | 341 | 988 |
| 47 | El Tambo INIA | 03-05-2026 11:30 | 19,5 | 44,4 | 0 | 0,4 | 56 | 455 | 988 |
| 46 | El Tambo INIA | 03-05-2026 11:15 | 18,7 | 46,2 | 0 | 0,4 | 47 | 488 | 989 |
| 45 | El Tambo INIA | 03-05-2026 11:00 | 18,3 | 46,6 | 0 | 0,2 | 15 | 478 | 989 |
| 44 | El Tambo INIA | 03-05-2026 10:45 | 17,1 | 49,7 | 0 | 0,7 | 50 | 450 | 989 |
| 43 | El Tambo INIA | 03-05-2026 10:30 | 15,7 | 55,8 | 0 | 1,4 | 76 | 421 | 989 |
| 42 | El Tambo INIA | 03-05-2026 10:15 | 14,8 | 60,3 | 0 | 1,1 | 70 | 393 | 989 |
| 41 | El Tambo INIA | 03-05-2026 10:00 | 14,6 | 61,2 | 0 | 0,6 | 71 | 359 | 989 |
| 40 | El Tambo INIA | 03-05-2026 09:45 | 13,7 | 60,2 | 0 | 0,1 | 308 | 325 | 989 |
| 39 | El Tambo INIA | 03-05-2026 09:30 | 12,6 | 65,1 | 0 | 0,1 | 278 | 286 | 989 |
| 38 | El Tambo INIA | 03-05-2026 09:15 | 11,5 | 71,3 | 0 | 0,1 | 304 | 243 | 988 |
| 37 | El Tambo INIA | 03-05-2026 09:00 | 9,7 | 75,6 | 0 | 0,5 | 61 | 204 | 988 |
| 36 | El Tambo INIA | 03-05-2026 08:45 | 8,3 | 84,5 | 0 | 1,5 | 79 | 165 | 988 |
| 35 | El Tambo INIA | 03-05-2026 08:30 | 7,2 | 87,9 | 0 | 1,4 | 74 | 126 | 988 |
| 34 | El Tambo INIA | 03-05-2026 08:15 | 6,5 | 89,7 | 0 | 0,4 | 53 | 92 | 988 |
| 33 | El Tambo INIA | 03-05-2026 08:00 | 5,3 | 95,4 | 0 | 0,2 | 124 | 47 | 988 |
| 32 | El Tambo INIA | 03-05-2026 07:45 | 4,7 | 96,4 | 0 | 0,3 | 135 | 12 | 988 |
| 31 | El Tambo INIA | 03-05-2026 07:30 | 5,3 | 92,6 | 0 | 0 | 0 | 3 | 987 |
| 30 | El Tambo INIA | 03-05-2026 07:15 | 6,1 | 91,3 | 0 | 0 | 0 | 1 | 987 |
| 29 | El Tambo INIA | 03-05-2026 07:00 | 6,6 | 92 | 0 | 0,1 | 251 | 0 | 987 |
| 28 | El Tambo INIA | 03-05-2026 06:45 | 7,4 | 90,4 | 0 | 0,4 | 326 | 0 | 987 |
| 27 | El Tambo INIA | 03-05-2026 06:30 | 8,2 | 87,5 | 0 | 0,7 | 155 | 0 | 987 |
| 26 | El Tambo INIA | 03-05-2026 06:15 | 8,2 | 85,6 | 0 | 1,2 | 110 | 0 | 987 |
| 25 | El Tambo INIA | 03-05-2026 06:00 | 8,4 | 85,8 | 0 | 1,9 | 78 | 0 | 987 |
| 24 | El Tambo INIA | 03-05-2026 05:45 | 8,6 | 83,9 | 0 | 1,8 | 64 | 0 | 987 |
| 23 | El Tambo INIA | 03-05-2026 05:30 | 7,9 | 85,7 | 0 | 1,8 | 62 | 0 | 987 |
| 22 | El Tambo INIA | 03-05-2026 05:15 | 6,4 | 91,6 | 0 | 1,1 | 65 | 0 | 987 |
| 21 | El Tambo INIA | 03-05-2026 05:00 | 5,8 | 93,8 | 0 | 0,6 | 78 | 0 | 988 |
| 20 | El Tambo INIA | 03-05-2026 04:45 | 6,3 | 92,4 | 0 | 0,2 | 315 | 0 | 988 |
| 19 | El Tambo INIA | 03-05-2026 04:30 | 7 | 90,6 | 0 | 0,1 | 272 | 0 | 987 |
| 18 | El Tambo INIA | 03-05-2026 04:15 | 7,4 | 89,6 | 0 | 0,5 | 134 | 0 | 987 |
| 17 | El Tambo INIA | 03-05-2026 04:00 | 7,7 | 87,5 | 0 | 1,1 | 101 | 0 | 987 |
| 16 | El Tambo INIA | 03-05-2026 03:45 | 8,5 | 84,1 | 0 | 1,7 | 85 | 0 | 987 |
| 15 | El Tambo INIA | 03-05-2026 03:30 | 8,3 | 83,3 | 0 | 1,8 | 82 | 0 | 987 |
| 14 | El Tambo INIA | 03-05-2026 03:15 | 8 | 85,7 | 0 | 1,9 | 72 | 0 | 987 |
| 13 | El Tambo INIA | 03-05-2026 03:00 | 7,9 | 86,6 | 0 | 1,4 | 59 | 0 | 987 |
| 12 | El Tambo INIA | 03-05-2026 02:45 | 8,6 | 85 | 0 | 0,7 | 45 | 0 | 988 |
| 11 | El Tambo INIA | 03-05-2026 02:30 | 8,7 | 79,1 | 0 | 0,9 | 109 | 0 | 987 |
| 10 | El Tambo INIA | 03-05-2026 02:15 | 7,8 | 86,8 | 0 | 1,2 | 95 | 0 | 988 |
| 9 | El Tambo INIA | 03-05-2026 02:00 | 7 | 89,4 | 0 | 0,7 | 91 | 0 | 987 |
| 8 | El Tambo INIA | 03-05-2026 01:45 | 6,9 | 92 | 0 | 0,1 | 129 | 0 | 987 |
| 7 | El Tambo INIA | 03-05-2026 01:30 | 7,6 | 87,4 | 0 | 0 | 0 | 0 | 987 |
| 6 | El Tambo INIA | 03-05-2026 01:15 | 8,7 | 85,3 | 0 | 0 | 0 | 0 | 987 |
| 5 | El Tambo INIA | 03-05-2026 01:00 | 9,5 | 80,9 | 0 | 0,1 | 308 | 0 | 987 |
| 4 | El Tambo INIA | 03-05-2026 00:45 | 10,7 | 75,6 | 0 | 0 | 349 | 0 | 987 |
| 3 | El Tambo INIA | 03-05-2026 00:30 | 12,1 | 67,2 | 0 | 0,7 | 104 | 0 | 987 |
| 2 | El Tambo INIA | 03-05-2026 00:15 | 12,8 | 59,7 | 0 | 1,7 | 75 | 0 | 987 |
| 1 | El Tambo INIA | 03-05-2026 00:00 | 13,2 | 60,5 | 0 | 1,6 | 85 | 0 | 987 |